NOAA 8 [-]

Last updated on Fri Dec 29 2023 00:02:19 GMT+0000 (Greenwich Mean Time)

1 13923U 83022A 23361.98952505 .00000300 00000+0 13591-3 0 9995 2 13923 98.7237 356.7180 0015372 20.5141 339.6654 14.29116118122439
UTC large
Height (km)
Speed (km/s)
/
Latitude / Longitude
Inclination (degrees)
Orbital Period (minutes)
Azimuth
Elevation
Range (km)
Doppler Factor

Next 0 passes for location: London (51.5072 / 0.1276)

Sorry there are no passes over London.